Regional Weather Roundup
Issued by NWS Wakefield, VA

Home | Current Version | Previous Version | Text Only | Print | Product List | Glossary Off
Versions: 1 2 3 4 5 6 7 8 9 10 11 12 13 14 15 16 17 18 19 20 21 22 23 24 25 26 27 28 29 30 31 32 33 34 35 36 37 38 39 40 41 42 43 44 45 46 47 48 49 50

000
ASUS41 KAKQ 300815
RWRAKQ

REGIONAL WEATHER ROUNDUP
NATIONAL WEATHER SERVICE WAKEFIELD VA
400 AM EDT MON MAY 30 2016

Note: "fair" indicates few or no clouds below 12,000 feet with no
significant weather and/or obstructions to visibility. * = Denotes
station may not report precipitation (e.g., rain,snow,etc.),
thunder or fog.

VAZ042-051-052>054-056-300900-
NORTHERN VIRGINIA

CITY           SKY/WX    TMP DP  RH WIND       PRES   REMARKS
WASH NATIONAL  CLOUDY    70  64  81 N7        30.02F
DULLES         CLOUDY    67  63  87 CALM      30.02F
FORT BELVOIR   CLOUDY    66  64  94 CALM      30.00F
QUANTICO       CLOUDY    69  67  93 NW3       30.01F
FREDERICKSBRG* CLOUDY    67  67 100 CALM      30.00F
STAFFORD*      DRIZZLE   65  64  94 W3        30.05F
WARRENTON      CLOUDY    67  62  85 CALM      30.02F
CULPEPER*      FAIR      65  65  99 CALM      30.03F
MANASSAS*      CLOUDY    66  66 100 CALM      30.02F
LEESBURG*      FAIR      66  66 100 CALM      30.03F
WINCHESTER     CLOUDY    63  61  94 SW3       30.04S
FRONT ROYAL*   CLOUDY    63  61  94 SW5       30.03F
LURAY*         CLOUDY    61  61 100 SW3       30.05F
$$

VAZ048-049-060>072-079>083-300900-
CENTRAL AND SOUTH CENTRAL VIRGINIA

CITY           SKY/WX    TMP DP  RH WIND       PRES   REMARKS
RICHMOND       CLOUDY    67  66  97 CALM      30.00F
CHESTERFIELD*  FAIR      66  55  68 CALM      30.02F
PETERSBURG*    CLOUDY    70  70 100 CALM      30.01F FOG
HANOVER        FOG       66  64  93 CALM      30.02S VSB 3/4
TAPPAHANNOCK*  CLOUDY    71  71 100 CALM      30.01S FOG
QUINTON*       FOG       68  68 100 CALM      30.00S VSB 1/2
CHARLOTTSVILLE MOCLDY    63  59  87 S3        30.03F
GORDONSVILLE*  PTSUNNY   62  62 100 CALM      30.02F
ORANGE*        FAIR      63  63 100 CALM      30.04F
LOUISA*        MOCLDY    68  66  94 CALM      30.01F
BUMPASS*       CLOUDY    65  65  99 CALM      30.02F
FARMVILLE*     CLOUDY    64  64 100 CALM      30.02S
CREWE*         CLOUDY    66  66 100 CALM      30.01F VSB 1/2
FORT PICKETT*  NOT AVBL
CHASE CITY*    CLOUDY    66  64  94 CALM      30.02S VSB 1/2
CLARKSVILLE*   CLOUDY    64  64 100 CALM      30.01S VSB 1/4
SOUTH HILL*    CLOUDY    68  68 100 CALM      30.06F VSB 3/4
LAWRENCEVILLE* CLOUDY    69  69 100 CALM      30.00F
EMPORIA*       CLOUDY    70  70 100 CALM      30.01F FOG
$$

VAZ088>098-300900-
SOUTHEAST VIRGINIA

CITY           SKY/WX    TMP DP  RH WIND       PRES   REMARKS
NORFOLK        MOCLDY    74  72  93 S7        30.00F
VIRGINIA BEACH LGT RAIN  78  72  81 S5        29.99F
NORFOLK NAVAL  CLOUDY    75  72  90 S3        30.01F
WEST POINT*    MOCLDY    73  72  98 CALM      30.01F
SALUDA*        CLOUDY    71  71 100 CALM      30.00S
NEWPORT NEWS   CLOUDY    73  72  96 CALM      30.00F
LANGLEY AFB    MOCLDY    74  73  98 S3        30.00S
FORT EUSTIS    MOCLDY    73 N/A N/A S3        29.98F HAZE
WILLIAMSBURG*  MOCLDY    75  73  94 S3        30.01F
HR EXEC AP*      N/A     72  68  88 SE3       30.02S
FRANKLIN*      CLOUDY    71  70  97 CALM      30.01S
US460-WAKEFLD  CLOUDY    73  71  93 CALM      30.00F
$$

VAZ020-022-025-037-045-300900-
WEST CENTRAL AND SOUTHWEST VIRGINIA

CITY           SKY/WX    TMP DP  RH WIND       PRES   REMARKS
STAUNTON*      CLOUDY    59  58  98 CALM      30.08F
WAYNESBORO*    CLOUDY    58  57  96 CALM      30.07F
HOT SPRINGS VA MOCLDY    57  57 100 W6        30.13F
LYNCHBURG      CLOUDY    63  59  87 N5        30.06F
DANVILLE       CLOUDY    64  61  90 CALM      30.03S
SOUTH BOSTON*  CLOUDY    63  62  95 CALM      30.02F
MARTINSVILLE   CLOUDY    61  60  96 N3        30.07F
ROANOKE        CLOUDY    61  59  93 N5        30.09F
BLACKSBURG     CLOUDY    58  58 100 CALM      30.13S FOG
DUBLIN*        CLOUDY    59  59 100 CALM      30.11F FOG
MARION*        FOG       55  54  96 CALM      30.13F VSB<1/4
HILLSVILLE*    FOG       56  56 100 CALM      30.10S VSB<1/4
RICHLANDS*     FAIR      59  42  52 CALM      30.10F
WISE*          FOG       61  61 100 CALM      30.11F VSB 1/4
ABINGDON*      FAIR      63  59  88 CALM      30.09S
$$

MDZ021>025-VAZ099-100-300900-
SOUTHERN MARYLAND AND THE DELMARVA PENINSULA

CITY           SKY/WX    TMP DP  RH WIND       PRES   REMARKS
PATUXENT RIVER CLOUDY    72  70  93 S5        29.99S FOG
BAY BRIDGE APT CLOUDY    68  68 100 CALM      30.00S FOG
LEONARDTOWN    CLOUDY    70  68  94 CALM      30.01S
DOVER          CLOUDY    73  73 100 S10       29.98F
GEORGETOWN     LGT RAIN  73  71  93 S8        30.01F
EASTON         CLOUDY    73  73 100 CALM      30.03S
CAMBRIDGE      CLOUDY    72  72 100 S3        29.99S
SALISBURY      LGT RAIN  72  71  97 S6        30.00F FOG
OCEAN CITY     LGT RAIN  71  70  96 SW8       30.01F
WALLOPS ISLAND LGT RAIN  70  68  93 S8        30.01F
ACCOMACK*      DRIZZLE   72  70  94 CALM      30.01F
$$

NCZ012>017-030>032-300900-
NORTH CENTRAL AND EASTERN NORTH CAROLINA

CITY           SKY/WX    TMP DP  RH WIND       PRES   REMARKS
ROANOKE RAPIDS FOG       68  68 100 CALM      30.00F VSB 3/4
RALEIGH        FOG       66  65  96 NE6       30.00S VSB 1/2
ELIZABETH CITY RAIN      73  71  93 SE5       30.01F FOG
AHOSKIE*       CLOUDY    71  71  99 CALM      30.00F FOG
EDENTON*       CLOUDY   N/A N/A N/A SE7       30.01S
CURRITUCK*     CLOUDY    74  73  99 CALM      30.02F
KILL DEVIL HLS LGT RAIN  72  71  95 SE3       30.01F
MANTEO         NOT AVBL
CAPE HATTERAS  LGT RAIN  74  72  93 SE10      30.02S
TARBORO*       FAIR      71  70  98 CALM      30.00F FOG
GOLDSBORO      NOT AVBL
WASHINGTON     CLOUDY    73  72  96 SE3       29.99S
GREENVILLE     MOCLDY    70  70 100 CALM      30.01F FOG
NEW BERN       CLOUDY    73  70  90 SE3       29.99F
WILMINGTON     CLOUDY    72  71  97 NE3       29.95F
$$

VAZ048-300900-
ELSEWHERE

CITY           SKY/WX    TMP DP  RH WIND       PRES   REMARKS
HARRISBURG PA  LGT RAIN  65  62  90 CALM      30.00F
BALTIMORE      MOCLDY    67  65  93 NW3       30.00F
ANNAPOLIS      CLOUDY    68  66  93 NW3       29.99F
ANDREWS AFB    CLOUDY    67  65  91 NW5       30.00F
PHILADELPHIA   LGT RAIN  71  68  90 CALM      29.99F FOG
HENDERSON NC   FOG       63  63  99 CALM      30.02S VSB 1/4
GREENSBORO     CLOUDY    64  61  90 NE5       30.02S
ROCKY MOUNT    CLOUDY    71  70  96 CALM      29.99S
$$

VAZ100-300900-
MARINE

STATION/POSITION TIME  TEMP    WIND        PRES    WAVE   SWELL
                       AIR SEA DIR/SP/G            HT/PER HT/PER
                 (UTC) (F)     (DEG/KT/KT) (MB)    (FT/S) (FT/S)
BRANDYWINE LGT   0700   68     190/ 14/ 14 1016.4F
CAPE MAY NJ      0700   67 70  160/  9/ 13 1016.5F
LEWES DE         0700   74 64  210/  4/  8 1016.6F
15NM E FENWICK I 0750   67 65              1016.5F   3/ 8
OCEAN-CITY-INLET 0700   67 59  230/  9/ 12 1017.4F
WACHAPREAGUE VA  0700   72 76  200/ 10/ 11 1016.3F
THOMAS POINT MD  0800   69 70  320/  5/  6 1017.2F
GOOSES REEF MD   0800   68 69  360/  2/  2 1016.7F   0
COVE POINT MD    0700   70     200/  4/  5 1016.6F
SOLOMONS ISLAND  0700   71 65  190/  5/  5   N/A
BISHOPS HEAD MD  0700   74 77  180/  9/ 12 1016.2F
PINEY POINT MD   0700          140/  6/  6   N/A
POTOMAC MD       0800   72 72   CALM  /  2 1014.6F   1
CAMBRIDGE MD     0700   73 69  160/  3/  5 1015.1F
LEWISETTA VA     0700   72 70  210/  2/  4 1015.7F
RAPPAHANNOCK LGT 0700          160/  7/  7 1017.0F
STINGRAY PT      0800   70 69  170/  8/ 10 1016.1F   1/ 2
YORK RVR RNG VA  0700   71     140/  5/  5 1015.6F
YORKTOWN VA      0700   73 71  160/  2/  3 1015.9F
JAMESTOWN VA     0800   73 75  190/  4/  4   N/A
DOMINION TERM VA 0700   74     220/  1/  1 1016.2F
KIPTOPEKE VA     0700      69  160/ 11/ 12   N/A
CHES BAY BRIDGE  0700   72 66  140/  5/  6 1016.2F
CAPE HENRY VA    0700   72     160/  6/  8   N/A
CHESAPEAKE LGHT  0700   70     160/ 17/ 18 1016.9F
WILLOUBY STN VA  0700   74     180/  5/  5 1017.1F
CAPE HENRY BUOY  0712      69                N/A     4/ 6
1ST LANDING BUOY 0800   69 70  130/  8/ 10 1015.9F   2/ 4
CAPE CHARLES BUO 0726      69                N/A     3/ 8   2/ 8
OFFSHORE WE BUOY 0721      70                N/A     4/ 7   2/14
64NM E OF VA BCH 0750   68 63  160/ 10/ 10 1016.6F   5/ 6   5/ 6
DUCK PIER NC     0700   64 59  150/ 10/ 12 1016.0F
44100 DUCK FRF   0724      68                N/A     4/ 8
44056 DUCK FRF   0711      62                N/A     4/ 7
OREGON INLET NC  0700   72 79  150/  9/ 13 1016.9S
HATTERAS NC      0700   74 77  160/ 12/ 18 1016.0F
DIAMOND SHLS NC  0750   76 81  170/ 16/ 19 1015.9F   5/ 8   3/ 8
CAPE LOOKOUT NC  C1F1C2F2C3F3C4F4C5F5C6F6C7F7C8M1C9!


USA.gov is the U.S. government's official web portal to all federal, state and local government web resources and services.